STARLINK-32002, 60200

Orbit data source: Space-Track

STARLINK-32002, 60200 is a payload satellite owned by SpaceX/Seattle (US) in LEO that was launched on Wed, 03 Jul 2024 UTC via an FALCON 9 launch vehicle from the Air Force Eastern Test Range (AFETR). Payload-class satellites include a variety of spacecraft equipped with specific instruments for various scientific and technological missions. These include communications satellites like Starlink; space stations such as the ISS; scientific satellites like the Hubble; Earth observation satellites from companies like Planet Labs, Umbra, and HawkEye 360; GPS; miniature CubeSats for education and research; and military/defense satellites.

Loading next visibility...
Identifier
60200, 2024-124T
Orbit
LEO
Country
Flag of USUS
Related business
Manufacturer
SpaceX/Seattle
Mission
Operational Commercial Communications
Bus & Motor
STARLINK V2M, Unknown motor
Mass
730 kg wet, ~700 kg dry
Launch date (UTC)
2024-07-03 (1 year ago)
Launch vehicle
FALCON 9
Launch site
Air Force Eastern Test Range (AFETR)
Object type
Payload
Rocket body
Debris
Shape & HBR
Box + 2 Pan, 17.7 m
Radar Cross Section
33.884 m², Large (>1 m²)

Expand to show TLE details & history
Last TLE update: 2 days ago

TLE from 2 days ago
0 STARLINK-32002
1 60200U 24124T   25308.66850271 -.00000040  00000-0  10787-4 0  9996
2 60200  53.1569 183.2586 0001454  78.9464 281.1700 15.30185358 75150
Epoch: 2025-11-04T16:02Z
TLE epoch observation values (Epoch: 2025-11-04T16:02:38.634Z)
Latitude
-0.00002°
Longitude
-101.55461°
Altitude
475.965 km
Speed
7.629 km/s
True Right ascension
12h 13m 02s
True Declination
0° 00' 00"
Sunlit
Object was in daylight at epoch
Visualization orbit readout
Latitude
Unknown
Longitude
Unknown
Altitude
Unknown
Speed
Unknown
Apparent Right ascension
Unknown
Apparent Declination
Unknown
Sunlit
N/A
Visualization observer readout
Local Sidereal Time
17:48:43
Azimuth
Unknown
Elevation
Unknown
Doppler factor
Unknown
Orbital elements
Apogee altitude
476.512 km
Perigee altitude
474.519 km
Semi-major axis
6,853.653 km
Eccentricity
0.00015
Inclination
53.1569°
RAAN
183.2586°
Arg. of periapsis
78.9464°
True anomaly
281.15365°
Mean anomaly
281.17°
Eccentric anomaly
281.16183°
Mean motion
3.82525 °/min
Orbital period
94.11 mins
BSTAR
0.000010787
Loading maneuver chart data...
Computing Atmospheric mass density...
Loading historical data...
Loading historical data...
Loading historical data...
Loading historical data...
Loading historical data...
Loading historical data...
Loading historical data...

Documentation

Showing up to 5 results
|